MINOTAUR 4 DEB, 52037

Orbit data source: Space-Track

MINOTAUR 4 DEB, 52037 is space debris in LEO originally from a launch on Wed, 15 Jul 2020 UTC launched from the Wallops Island (WLPIS). Debris objects in space refer to the collection of defunct objects orbiting the Earth. Examples of debris include non-operational satellites, rocket bodies, and fragments generated from explosions, collisions, or faulty payload assembly.

Loading next visibility...
Identifier
52037, 2020-046AB
Orbit
LEO
Country
Flag of USUS
Related business
Manufacturer
NGIS FSG
Mission
Spacecraft
Bus & Motor
Unknown
Mass
Unknown
Launch date (UTC)
2020-07-15 (6 years ago)
Launch vehicle
Unknown
Launch site
Wallops Island (WLPIS)
Object type
Payload
Rocket body
Debris
Shape & HBR
Unknown shape, 0.1 m
Radar Cross Section
Medium (>0.1 m² and <1 m²)

Expand to show TLE details & history
Last TLE update: 1 day ago

TLE from 1 day ago
0 MINOTAUR 4 DEB
1 52037U 20046AB  26264.17500773  .00000439  00000-0  50404-4 0  9992
2 52037  53.9791 181.6395 0006173 239.5725 120.4666 15.04591519256329
Epoch: 2026-09-21T04:12Z
TLE epoch observation values (Epoch: 2026-09-21T04:12:00.667Z)
Latitude
-0°
Longitude
118.57811°
Altitude
555.907 km
Speed
7.584 km/s
True Right ascension
12h 06m 33s
True Declination
0° 00' 00"
Sunlit
Object was in daylight at epoch
Visualization orbit readout
Latitude
Unknown
Longitude
Unknown
Altitude
Unknown
Speed
Unknown
Apparent Right ascension
Unknown
Apparent Declination
Unknown
Sunlit
N/A
Visualization observer readout
Local Sidereal Time
00:27:27
Azimuth
Unknown
Elevation
Unknown
Doppler factor
Unknown
Orbital elements
Apogee altitude
557.162 km
Perigee altitude
548.605 km
Semi-major axis
6,931.02 km
Eccentricity
0.00062
Inclination
53.9791°
RAAN
181.6395°
Arg. of periapsis
239.5725°
True anomaly
120.52755°
Mean anomaly
120.4666°
Eccentric anomaly
120.49708°
Mean motion
3.76138 °/min
Orbital period
95.71 mins
BSTAR
0.000050404
Loading maneuver chart data...
Computing Atmospheric mass density...

Documentation

Showing up to 5 results
|